Presure
140 148 148 151 150 142 120 127 152 133 130 126 147 147 132 131 105 133 141 128 132 126 147 137 166 156 147 142 142 155 129 130 129 177 176 179 170 182 217 219 212 203 198 196 198 194 221 195 195
144 141 141 149 113 135 161 138 129 149 123 138 141 117 137 134 127 126 160 133 136 126 139 138 168 159 152 144 153 146 135 141 150 161 169 158 187 176 169 171 168 212 217 187 190 221 214 199 201
139 129 141 114 143 141 125 139 130 123 128 123 122 131 137 146 111 123 136 137 138 127 133 144 170 155 150 148 146 151 148 145 160 136 155 158 164 151 177 172 157 170 160 208 208 209 261 257 187
137 131 152 146 135 124 134 139 123 151 142 128 118 130 134 189 116 149 146 136 148 136 131 156 174 147 158 148 146 144 144 122 138 147 154 152 146 156 145 149 146 150 151 146 151 196 195 175 181
117 135 143 119 141 144 134 145 146 111 131 139 148 140 135 121 143 131 140 133 146 136 149 144 174 166 148 139 154 147 144 143 145 155 136 150 148 142 145 143 137 142 136 140 138 145 138 138 193
142 142 136 140 149 141 125 138 138 128 141 140 147 133 126 122 135 127 141 137 139 145 146 142 161 146 152 144 149 153 136 150 143 146 134 151 144 148 136 140 142 139 175 172 164 91 142 151 149
149 134 101 137 147 144 144 126 125 129 138 128 144 145 140 122 134 128 141 150 142 139 154 140 156 160 153 151 140 148 135 142 150 149 140 134 129 139 129 134 132 137 136 136 149 185 150 101 145
156 125 136 137 129 148 134 145 130 134 137 121 125 135 144 132 130 128 148 148 152 152 162 141 154 169 154 151 142 140 143 144 150 133 147 130 137 121 132 137 136 139 132 134 134 135 160 161 188
133 155 138 146 153 140 137 145 138 147 147 149 146 133 127 130 131 140 151 157 161 170 169 144 160 176 152 154 154 135 146 136 144 159 151 122 150 136 128 131 140 136 133 133 140 138 142 130 151
186 142 147 147 140 148 147 153 145 142 143 119 140 127 134 130 133 152 154 162 171 164 145 147 161 195 155 166 155 142 142 142 143 134 127 156 155 139 127 133 113 141 135 133 131 129 142 147 139
178 155 150 147 154 144 146 138 129 138 128 140 148 148 143 153 166 158 161 155 138 145 146 158 169 177 156 159 154 151 130 140 135 144 135 142 133 149 128 109 133 150 143 137 133 128 147 128 128
152 145 156 156 145 149 150 136 148 147 114 126 134 164 174 129 153 143 138 148 179 170 176 169 187 178 179 164 160 157 150 147 142 143 156 139 136 144 124 131 106 151 148 136 131 145 112 152 135
135 152 150 143 115 143 147 152 159 122 122 165 120 168 144 136 156 139 150 248 173 174 187 165 199 177 155 158 160 158 154 146 150 134 135 144 135 128 134 142 136 144 150 158 139 133 142 136 139
118 111 113 119 108 133 129 115 117 147 146 149 166 122 121 129 157 153 171 176 228 174 176 173 161 170 172 155 163 160 146 151 156 148 136 136 141 126 137 132 138 133 161 134 148 124 141 134 149
159 161 150 159 171 165 166 175 184 161 167 166 214 163 155 182 175 144 200 178 253 194 184 180 210 166 176 166 143 158 159 160 148 149 153 136 131 130 130 141 130 135 161 141 141 141 138 128 168
166 168 166 167 211 221 192 175 180 187 184 180 173 167 212 164 132 180 174 159 144 156 154 152 155 153 173 160 213 166 163 164 152 148 144 147 148 136 133 134 141 141 131 136 140 139 140 131 135
204 209 211 217 202 182 177 179 164 201 197 189 172 177 174 200 173 142 152 156 162 156 153 154 166 179 180 183 163 178 158 167 155 148 137 145 141 151 140 135 134 140 156 147 153 139 130 135 144
195 187 181 188 188 188 188 192 208 173 205 222 198 193 185 211 194 193 169 154 156 154 152 155 212 213 197 188 156 150 175 160 161 154 153 144 144 142 150 142 133 136 151 146 148 139 142 138 129
190 195 201 199 192 190 187 185 176 187 179 175 190 170 165 162 150 184 173 164 156 147 149 158 180 200 209 191 168 155 168 159 169 157 154 151 145 156 143 149 133 134 141 150 142 133 139 123 131
194 189 192 197 169 214 219 202 191 198 179 190 177 179 174 174 137 150 165 163 155 147 143 145 237 236 208 174 191 162 179 175 158 176 159 158 152 147 146 144 133 135 136 146 126 125 128 121 127
213 202 191 192 201 196 215 232 213 201 189 190 164 182 180 176 144 134 185 141 168 141 132 156 149 143 191 192 198 207 193 190 164 175 191 167 151 151 153 146 131 133 133 133 141 141 137 137 135
229 222 215 99 239 187 202 206 208 207 179 173 171 194 160 165 176 154 105 190 201 141 167 188 141 178 180 170 165 172 191 184 179 205 211 204 170 151 144 148 145 148 138 134 132 135 135 133 133
188 188 201 197 216 241 186 188 102 238 182 170 176 171 183 169 164 154 158 161 172 198 162 137 173 143 150 167 166 162 163 176 198 194 182 172 197 144 123 150 152 143 144 146 136 135 139 144 136
198 195 189 201 219 239 225 189 213 191 200 167 167 145 189 181 183 192 175 187 155 150 163 161 175 182 173 172 175 189 177 171 171 184 216 197 182 148 182 164 153 148 149 147 147 143 144 134 134
190 205 191 227 235 232 228 219 255 192 212 169 168 157 167 170 163 165 165 178 169 155 165 158 145 149 163 156 159 157 197 168 171 163 157 177 177 206 178 194 172 152 167 175 146 142 164 145 134
213 214 205 242 240 224 218 247 228 226 204 170 169 179 157 156 181 161 189 170 188 227 177 184 191 148 143 170 171 167 147 132 151 164 162 200 152 176 209 192 193 157 172 170 159 153 154 160 147
198 201 213 216 236 232 218 227 248 242 175 169 170 173 170 160 173 160 157 159 167 167 186 130 179 134 132 182 146 145 145 150 137 144 140 169 161 156 105 169 187 213 160 138 159 173 153 150 158
183 196 221 215 232 208 233 221 224 222 224 176 178 169 176 180 171 183 176 188 154 195 144 141 172 181 142 141 154 135 133 148 151 151 151 140 117 152 172 164 158 164 225 162 200 149 158 153 150
216 231 224 239 249 254 225 236 223 208 214 204 183 177 172 197 180 169 176 166 180 179 188 161 202 145 155 172 148 146 148 150 153 154 154 212 203 144 142 173 181 171 175 174 186 229 222 123 175
224 224 223 268 247 254 219 222 214 199 219 202 201 191 182 188 153 185 182 189 179 202 170 169 163 173 167 160 160 165 176 157 157 159 165 190 217 169 260 153 152 161 155 164 133 171 148 179 162
Wind_Speed
7 8 7 13 13 14 2 7 16 8 7 9 16 16 12 12 6 13 19 15 18 18 23 22 15 15 19 19 23 29 7 16 17 45 47 42 44 45 35 29 25 20 17 14 9 4 5 2 2
4 5 7 7 2 9 16 8 5 14 5 9 10 8 12 11 11 14 18 18 18 16 21 20 12 10 17 17 21 28 21 29 34 37 44 47 47 42 43 44 40 33 27 22 19 9 7 7 8
6 11 8 5 11 10 5 8 6 3 5 9 9 15 18 22 12 14 16 17 17 16 21 20 10 12 16 16 18 22 26 31 32 31 37 42 44 47 46 44 48 43 47 35 31 26 10 5 17
8 13 9 4 13 6 7 8 2 13 10 6 6 12 13 18 12 20 17 17 17 17 16 16 5 15 9 14 13 20 24 3 31 32 33 39 42 46 45 46 45 46 47 48 49 35 31 30 20
7 13 9 6 12 10 8 12 15 3 7 9 12 16 12 13 18 15 17 15 17 17 18 16 5 1 11 11 9 14 20 25 27 30 28 33 39 38 43 42 38 42 34 40 41 45 41 32 24
13 10 8 13 13 7 7 11 13 7 16 12 12 12 12 7 15 13 19 16 15 16 16 16 9 9 6 7 7 10 14 18 25 25 16 34 37 40 37 42 41 39 37 38 40 9 41 39 38
17 10 6 10 13 9 9 9 11 15 19 8 15 15 17 5 12 12 19 19 16 15 14 17 9 1 2 0 5 5 10 20 18 23 22 25 28 35 28 32 32 37 37 37 40 38 37 13 37
19 7 10 7 9 14 10 11 12 16 15 8 7 9 18 15 11 14 20 18 17 14 13 16 10 6 4 3 1 3 6 14 18 20 16 15 25 13 28 29 27 32 27 32 33 34 43 40 33
10 16 15 11 15 12 15 16 16 17 17 15 15 12 12 16 17 19 21 19 16 14 11 12 8 12 7 7 6 2 2 11 15 11 10 9 21 21 25 24 27 23 25 27 33 32 35 29 38
20 16 16 14 14 14 13 14 16 16 18 13 20 14 16 15 18 20 16 15 12 9 14 12 8 16 10 16 8 3 2 9 12 11 16 11 18 18 19 21 14 19 20 24 23 25 31 34 30
18 16 14 16 16 14 15 16 14 17 16 19 22 23 21 17 16 14 14 12 17 15 14 13 10 15 11 13 11 9 6 4 9 8 11 11 11 16 17 6 15 18 13 15 18 14 30 21 19
15 16 17 20 17 17 17 16 18 19 13 19 22 23 21 21 19 17 17 15 10 9 12 11 15 15 24 18 16 13 11 5 7 7 6 13 8 15 7 16 12 13 12 15 12 19 6 30 21
13 17 20 20 13 20 18 22 25 16 21 19 18 23 19 21 17 23 16 13 7 7 10 9 16 14 7 11 16 14 15 10 6 6 6 6 16 10 10 15 9 14 15 12 15 13 15 19 21
16 14 18 20 9 23 20 17 20 23 20 20 19 20 18 21 18 19 11 6 11 5 7 8 5 11 16 9 17 19 9 15 18 8 4 8 9 9 11 4 7 11 11 9 15 4 15 15 18
19 21 21 25 30 28 31 28 28 26 24 22 14 20 24 21 24 20 7 3 7 8 4 7 18 6 14 14 5 18 20 21 17 17 9 7 9 6 6 7 8 8 8 5 10 9 10 10 18
25 25 25 25 30 26 27 25 23 20 18 19 19 23 13 24 19 9 5 6 9 3 5 4 4 4 11 11 31 24 23 26 21 21 18 7 8 3 2 1 5 7 2 5 6 7 8 6 7
27 25 24 26 25 25 28 25 19 16 19 19 26 24 17 18 25 18 15 15 10 9 6 3 5 6 15 21 14 28 19 27 20 23 14 21 11 12 6 3 2 9 12 7 13 6 2 3 10
24 25 27 25 25 24 23 22 15 8 13 10 19 23 22 14 19 16 17 21 8 6 6 5 11 20 20 22 14 16 31 23 25 24 28 23 22 13 16 11 5 6 14 12 14 2 6 4 4
22 26 28 26 24 22 19 21 20 15 20 18 19 21 20 18 16 13 21 18 12 10 7 6 8 10 17 18 15 15 25 22 31 29 29 30 26 27 16 19 11 10 13 13 12 8 11 8 3
21 24 27 28 16 26 22 18 19 17 20 17 22 24 23 19 15 11 17 17 13 13 7 6 6 7 11 12 18 17 26 31 25 37 36 34 30 28 24 20 17 15 13 17 15 13 12 4 6
20 21 27 24 26 17 16 16 17 18 18 19 23 21 25 24 15 17 13 10 16 16 13 12 7 5 2 6 11 24 27 27 25 31 40 39 31 30 31 25 19 21 20 19 22 23 21 20 20
16 17 21 5 24 18 11 9 16 21 20 23 22 14 26 27 25 16 11 19 16 17 21 23 14 14 8 9 7 6 23 26 24 34 41 39 40 33 26 32 28 29 26 25 25 25 24 24 22
16 18 19 23 23 23 13 10 7 22 27 27 21 24 26 25 23 21 18 17 29 10 14 20 17 15 9 12 16 16 10 10 24 26 28 33 38 23 10 36 37 31 31 36 32 31 31 31 27
20 18 22 24 23 22 21 13 14 23 31 32 29 31 13 19 28 26 34 18 23 20 13 10 15 13 14 4 10 11 7 5 7 14 28 30 33 28 44 42 40 35 38 38 41 39 39 31 28
23 22 23 18 22 20 21 21 16 28 29 36 29 36 25 28 29 33 28 39 37 19 28 19 22 18 15 12 11 11 18 11 16 16 14 24 29 38 39 44 46 40 43 40 41 44 39 41 31
20 19 23 14 18 21 23 19 25 33 43 42 44 35 40 33 35 34 16 30 20 17 24 23 22 18 21 26 13 19 12 13 19 27 35 33 26 25 37 40 46 38 47 44 43 45 42 39 42
25 23 22 23 19 22 29 30 32 36 44 44 41 44 44 35 34 35 32 36 37 25 20 21 25 25 22 30 12 11 12 16 18 20 25 26 31 39 7 30 37 46 41 33 46 48 44 43 43
27 25 22 23 22 30 33 32 30 33 40 40 48 44 39 49 41 39 44 29 31 24 24 27 34 33 27 24 27 18 20 25 26 26 31 31 23 38 42 22 28 39 45 27 51 45 48 49 45
27 23 23 20 23 26 35 39 37 33 41 42 51 54 45 44 45 42 42 42 36 36 30 36 29 30 29 29 30 32 33 31 31 30 31 39 41 50 48 34 40 42 39 44 42 49 51 28 52
28 26 23 20 27 24 37 39 34 33 41 41 47 57 50 47 30 43 43 42 45 29 42 43 42 42 42 40 42 47 50 33 35 42 51 42 42 49 42 53 52 49 48 50 37 45 48 47 53
Wind_Direction
223 253 257 270 271 243 228 265 280 289 306 334 309 318 351 5 58 4 353 1 5 20 2 15 13 14 24 31 33 29 33 67 53 56 61 66 69 73 74 76 80 80 78 73 70 50 93 210 185
261 189 220 273 123 236 291 252 257 296 12 308 309 3 343 358 18 5 341 357 1 18 11 17 8 20 12 30 32 56 77 54 50 60 62 70 67 72 71 71 72 76 80 75 71 85 106 112 114
183 209 230 171 268 244 205 265 254 320 321 25 15 343 351 328 41 11 356 355 354 14 18 9 5 16 15 20 39 44 56 54 57 77 66 71 71 78 68 70 74 72 73 69 69 71 63 101 86
206 207 293 257 218 249 259 264 208 302 276 356 6 327 338 319 20 326 340 354 346 2 15 349 342 15 5 16 39 59 66 107 69 57 69 75 76 75 79 79 79 76 75 77 72 69 74 80 88
200 211 234 229 245 265 261 307 308 59 325 319 322 319 340 7 328 344 340 354 345 358 346 5 336 34 23 25 40 48 70 69 61 66 85 75 81 83 81 81 86 80 88 85 84 74 77 77 86
243 265 229 247 269 249 294 295 298 328 308 316 326 323 336 16 336 340 332 341 342 347 343 354 348 4 23 21 29 55 70 75 76 72 85 78 83 82 90 85 83 82 72 72 70 70 76 73 75
252 219 70 238 274 252 274 295 323 314 307 345 316 321 312 0 332 336 327 323 334 349 323 345 337 304 340 249 55 59 67 72 73 84 79 90 105 83 98 95 98 95 93 89 76 69 78 43 68
252 251 262 257 273 281 270 265 275 276 281 314 321 316 302 320 339 339 310 313 317 322 310 333 320 218 240 229 102 56 70 83 77 94 86 78 86 143 96 87 88 87 101 94 88 84 65 63 67
263 248 242 237 258 255 273 272 273 279 286 291 286 298 311 317 334 318 309 308 309 310 297 317 291 221 259 230 204 318 63 91 81 77 79 30 85 92 101 90 73 84 94 89 78 81 76 88 64
271 235 246 241 252 251 250 270 268 279 283 328 287 324 301 323 316 297 309 300 306 295 301 304 255 216 250 212 213 224 290 95 94 100 100 83 91 92 107 84 72 69 92 99 101 100 73 74 81
255 257 259 260 266 248 249 254 280 268 289 274 281 287 294 302 279 275 285 282 310 299 296 280 241 216 245 229 229 211 40 104 101 101 94 77 74 73 104 286 70 69 64 70 82 85 70 91 89
250 257 265 267 266 262 261 259 249 252 331 308 289 278 280 302 281 286 292 289 281 268 264 260 234 211 211 220 221 209 242 262 126 126 210 103 102 76 185 92 305 62 57 64 53 60 40 62 69
271 259 265 265 296 265 260 267 277 280 294 285 301 284 276 279 284 288 292 312 271 273 262 251 226 228 248 243 220 221 233 269 235 128 116 114 107 135 87 55 61 46 23 17 56 63 56 58 63
278 290 291 288 320 285 277 305 307 286 284 273 283 289 307 306 274 280 264 327 271 271 271 244 255 251 213 255 232 224 251 249 265 202 154 150 122 179 87 73 65 43 8 69 53 61 47 41 48
269 266 263 270 271 276 277 278 280 285 282 275 270 264 267 241 240 279 296 49 285 277 279 247 227 257 204 229 256 234 229 231 255 291 242 146 186 197 131 44 85 16 0 33 81 64 66 55 50
268 270 271 267 279 283 281 280 283 285 281 277 262 258 269 257 302 247 184 191 228 221 226 250 277 214 229 242 218 235 231 229 235 253 287 295 278 183 186 62 358 339 22 337 100 79 60 54 50
276 278 277 273 277 277 281 285 283 282 273 265 269 260 247 200 234 271 266 230 173 190 232 217 339 271 242 220 244 229 245 233 226 242 294 276 285 268 262 265 335 329 303 302 326 109 92 7 345
275 280 277 280 277 281 283 288 296 298 265 244 228 237 240 209 187 169 212 255 227 214 209 284 259 238 228 226 238 245 235 241 239 229 242 262 268 273 264 263 260 293 302 312 314 239 315 354 224
280 278 280 282 278 280 281 281 274 274 272 272 232 271 266 274 270 204 187 207 218 236 264 342 303 232 243 230 227 231 242 245 238 241 237 245 254 249 259 260 265 255 279 289 285 292 313 207 299
276 281 279 280 288 280 278 272 273 259 266 241 271 272 274 256 237 239 219 212 225 243 265 296 306 240 239 206 235 230 242 245 247 235 239 239 244 256 257 257 273 271 267 277 292 300 296 269 323
277 276 278 280 280 273 274 254 241 235 233 232 268 253 275 290 282 233 277 226 236 234 241 281 273 247 0 244 253 247 247 250 247 260 244 238 245 251 253 259 272 271 273 275 273 275 283 290 289
276 275 278 272 271 276 266 244 216 217 227 241 244 225 273 285 289 286 279 294 293 227 261 290 254 311 231 182 183 236 253 261 271 254 245 242 241 246 263 258 258 258 265 273 278 275 279 285 288
283 283 279 280 273 265 244 223 156 203 209 237 234 249 239 256 266 274 269 273 286 288 283 255 307 243 237 233 211 206 205 266 263 271 256 249 246 271 320 251 255 256 257 259 269 274 272 275 284
293 287 285 283 270 253 250 217 217 205 199 230 238 286 278 253 256 244 257 260 263 270 255 226 250 270 283 272 288 282 278 285 297 294 256 262 260 264 248 247 251 258 255 255 259 264 265 274 276
289 283 278 261 249 241 239 231 207 191 189 220 220 260 268 248 261 262 266 258 267 253 276 264 243 254 253 232 250 258 301 342 317 315 303 287 276 260 256 252 251 250 253 251 255 259 262 263 275
284 276 273 253 247 240 233 202 218 192 184 227 233 234 289 301 238 262 254 269 270 230 262 223 238 250 254 240 248 274 280 289 307 302 305 282 287 284 264 262 254 255 250 248 244 251 258 252 260
279 280 273 263 232 224 230 220 194 190 220 245 264 252 265 291 239 268 273 264 255 259 231 278 226 277 284 228 285 286 289 288 288 295 287 276 268 256 296 255 271 262 257 262 254 254 253 257 258
277 276 273 266 231 248 217 231 227 209 210 252 234 244 257 248 268 240 237 242 273 230 260 272 235 230 269 277 254 263 276 271 261 265 261 270 277 268 264 252 247 259 267 273 257 253 251 257 259
277 275 267 257 224 230 229 220 229 229 232 226 236 242 250 238 244 254 246 261 246 246 241 258 239 265 241 250 257 263 266 272 269 269 274 254 247 259 270 244 248 248 257 256 258 259 257 280 250
271 272 265 240 224 229 231 229 236 239 226 238 238 235 242 239 266 248 251 255 254 248 248 254 259 251 253 256 257 261 266 271 277 280 280 262 253 250 257 258 266 259 258 250 287 249 255 245 241